Regional Weather Roundup
Issued by NWS

Home | Current Version | Previous Version | Graphics & Text | Print | Product List | Glossary On
Versions: 1 2 3 4 5 6 7 8 9 10 11 12 13 14 15 16 17 18 19 20 21 22 23 24 25 26 27 28 29 30 31 32 33 34 35 36 37 38 39 40 41 42 43 44 45 46 47 48 49 50
000
ASUS43 KMKX 301211
RWRWI

WISCONSIN REGIONAL WEATHER ROUNDUP
NATIONAL WEATHER SERVICE MILWAUKEE/SULLIVAN WI
700 AM CDT SUN AUG 30 2015

NOTE: "FAIR" INDICATES FEW OR NO CLOUDS BELOW 12,000 FEET WITH NO
SIGNIFICANT WEATHER AND/OR OBSTRUCTIONS TO VISIBILITY.

WIZ001-002-006>008-014>016-023>028-301300-
NORTHWEST WISCONSIN

CITY           SKY/WX    TMP DP  RH WIND       PRES   REMARKS
SUPERIOR ARPT  CLOUDY    65  63  95 SW7       29.95R
6HR MIN TEMP:  55; 6HR MAX TEMP:  65;

ASHLAND        CLOUDY    65  64  97 S9        29.98R
6HR MIN TEMP:  57; 6HR MAX TEMP:  65;

HAYWARD        CLOUDY    63  61  93 S10       30.01S
6HR MIN TEMP:  59; 6HR MAX TEMP:  63;

SIREN          CLOUDY    64  62  94 SW7       30.00R
6HR MIN TEMP:  60; 6HR MAX TEMP:  64;

CUMBERLAND     FOG       59  59 100 S7        30.02S VSB 1/4
RICE LAKE      CLOUDY    59  58  96 SE3       30.04S FOG
6HR MIN TEMP:  57; 6HR MAX TEMP:  59;

CHETEK         FOG      N/A N/A N/A CALM      30.04R VSB 1/4
LADYSMITH      CLOUDY    59  58  96 S3        30.06R FOG
6HR MIN TEMP:  58; 6HR MAX TEMP:  61;

EAU CLAIRE     CLEAR     57  55  93 CALM      30.04R
6HR MIN TEMP:  54; 6HR MAX TEMP:  61;

MENOMONIE      FOG       56  56 100 E5        30.03S VSB 1/4
6HR MIN TEMP:  55; 6HR MAX TEMP:  59;

NEW RICHMOND   CLOUDY    62  62 100 SW7       30.02R FOG
6HR MIN TEMP:  59; 6HR MAX TEMP:  62;

OSCEOLA        CLOUDY    64  64 100 S8        30.03R FOG
6HR MIN TEMP:  61; 6HR MAX TEMP:  64;

$$

WIZ003>005-009-010-017-018-301300-
NORTH CENTRAL WISCONSIN

CITY           SKY/WX    TMP DP  RH WIND       PRES   REMARKS
MANITOWISH WTR CLOUDY    60  60 100 SW9       30.04S
6HR MIN TEMP:  58; 6HR MAX TEMP:  60;

ARBOR VITAE    CLOUDY    60  59  97 SW5       30.05S FOG
6HR MIN TEMP:  59; 6HR MAX TEMP:  60;

WOODRUFF       CLOUDY    60  59  97 SW5       30.05S FOG
6HR MIN TEMP:  59; 6HR MAX TEMP:  60;

RHINELANDER    FOG       58  57  97 SW3       30.07R VSB 1/4
6HR MIN TEMP:  58; 6HR MAX TEMP:  60;

EAGLE RIVER    CLOUDY    59  59 100 SW5       30.05S FOG
6HR MIN TEMP:  58; 6HR MAX TEMP:  60;

LAND O LAKES   CLOUDY    60  60  99 SW5       30.06R FOG
6HR MIN TEMP:  60; 6HR MAX TEMP:  61;

PHILLIPS       FOG       57  57 100 CALM      30.04S VSB 1/4
6HR MIN TEMP:  56; 6HR MAX TEMP:  59;

TOMAHAWK       FOG       53  52  97 CALM      30.07R VSB 1/4
6HR MIN TEMP:  53; 6HR MAX TEMP:  55;

MEDFORD        FOG       51  51 100 CALM      30.07R VSB<1/4
6HR MIN TEMP:  48; 6HR MAX TEMP:  55;

MERRILL        FOG       52  52 100 CALM      30.08R VSB<1/4
6HR MIN TEMP:  50; 6HR MAX TEMP:  52;

$$

WIZ029-030-035-036-043>047-301300-
CENTRAL WISCONSIN

CITY           SKY/WX    TMP DP  RH WIND       PRES   REMARKS
WAUSAU         FOG       52  51  97 CALM      30.06R VSB 1/4
6HR MIN TEMP:  51; 6HR MAX TEMP:  56;

MOSINEE        FOG       52  52 100 CALM      30.07R VSB 1/4
MARSHFIELD     FOG       54  52  93 CALM      30.07R VSB 1/4
6HR MIN TEMP:  52; 6HR MAX TEMP:  58;

STEVENS POINT  MOCLDY    51  51 100 CALM      30.07R FOG
6HR MIN TEMP:  49; 6HR MAX TEMP:  56;

WAUPACA        CLEAR     53  51  95 CALM      30.08R
6HR MIN TEMP:  52; 6HR MAX TEMP:  57; 6HR PCP:  0.15;

WAUTOMA        FOG       55  55 100 CALM      30.08R VSB<1/4
6HR MIN TEMP:  54; 6HR MAX TEMP:  59;

WISC RAPIDS    CLEAR     56  54  93 CALM      30.08R FOG
6HR MIN TEMP:  53; 6HR MAX TEMP:  62; 6HR PCP: TRACE;

CAMP DOUGLAS   CLEAR     52  52 100 CALM      30.07R FOG
                                      6HR PCP: TRACE;

$$

WIZ011>013-019>022-031-037>040-048>050-301300-
NORTHEAST WISCONSIN

CITY           SKY/WX    TMP DP  RH WIND       PRES   REMARKS
ANTIGO         FOG       51  51 100 CALM      30.08R VSB 1/4
SHAWANO        FOG       53  52  95 CALM      30.07R VSB 3/4
6HR MIN TEMP:  53; 6HR MAX TEMP:  58;

OCONTO         MOCLDY    52  52 100 CALM      30.06R
6HR MIN TEMP:  51; 6HR MAX TEMP:  55; 6HR PCP:  0.01;

STURGEON BAY   CLOUDY    61  55  82 SW3       30.09R VSB<1/4
6HR MIN TEMP:  54; 6HR MAX TEMP:  61;

GREEN BAY      FOG       56  55  97 CALM      30.07R VSB 1/4
6HR MIN TEMP:  55; 6HR MAX TEMP:  60;

MANITOWOC      CLOUDY    57  57 100 MISG      30.08R FOG
6HR MIN TEMP:  53; 6HR MAX TEMP:  57;

APPLETON       MOCLDY    55  55 100 CALM      30.06R FOG
CLINTONVILLE   FOG       52  50  93 CALM      30.07R VSB 1/4
OSHKOSH        FOG       55  55 100 CALM      30.07R VSB 1/2
6HR MIN TEMP:  53; 6HR MAX TEMP:  62;

$$

WIZ032>034-041-042-053>061-301300-
SOUTHWEST WISCONSIN

CITY           SKY/WX    TMP DP  RH WIND       PRES   REMARKS
LA CROSSE      FOG       59  59 100 E6        30.05R VSB<1/4
6HR MIN TEMP:  58; 6HR MAX TEMP:  61;

SPARTA         MOCLDY    51  51  97 CALM      30.07R
6HR MIN TEMP:  51; 6HR MAX TEMP:  64;

VIROQUA          N/A     58  58 100 S5        30.07R
6HR MIN TEMP:  58; 6HR MAX TEMP:  64;

BOSCOBEL       FOG       61  59  93 CALM      30.07R VSB<1/4
6HR MIN TEMP:  60; 6HR MAX TEMP:  65;

PRAIRIE DU CHI FOG       58  57  96 CALM      30.06S VSB<1/4
6HR MIN TEMP:  58; 6HR MAX TEMP:  65;

PLATTEVILLE    CLEAR     58  57  97 CALM      30.07S
6HR MIN TEMP:  58; 6HR MAX TEMP:  67;

$$

WIZ056-057-062-063-064-067-068-301300-
SOUTH CENTRAL WISCONSIN

CITY           SKY/WX    TMP DP  RH WIND       PRES   REMARKS
REEDSBURG      CLOUDY    57  57 100 CALM      30.06S FOG
6HR MIN TEMP:  56; 6HR MAX TEMP:  63;

BARABOO/DELLS  FOG       58  57  96 CALM      30.07S VSB<1/4
6HR MIN TEMP:  57; 6HR MAX TEMP:  62;

LONE ROCK      FOG       62  60  93 CALM      30.07S VSB 1/4
6HR MIN TEMP:  61; 6HR MAX TEMP:  65;

MINERAL POINT  CLEAR     63  59  88 CALM      30.07S
MADISON        CLOUDY    62  60  93 CALM      30.07R
6HR MIN TEMP:  61; 6HR MAX TEMP:  64;

MIDDLETON      CLOUDY    62  62  99 CALM      30.08R VSB<1/4
6HR MIN TEMP:  62; 6HR MAX TEMP:  65;

WATERTOWN      CLOUDY    62  62 100 CALM      30.07R FOG
6HR MIN TEMP:  62; 6HR MAX TEMP:  63;

MONROE         CLOUDY    63  59  88 CALM      30.07S
JANESVILLE     CLOUDY    64  63  94 CALM      30.06R FOG
$$

WIZ051-052-058>065-066-070>072-301300-
SOUTHEAST WISCONSIN

CITY           SKY/WX    TMP DP  RH WIND       PRES   REMARKS
MILWAUKEE      FOG       63  62  97 N5        30.06R VSB 1/4
6HR MIN TEMP:  62; 6HR MAX TEMP:  63;

WAUKESHA       FOG       61  61 100 CALM      30.08R VSB 1
MILWAUKEE/TIMM FOG       61  59  94 CALM      30.08R VSB 3/4
RACINE         FOG       63  62  97 NW5       30.08R VSB 1/4
6HR MIN TEMP:  63; 6HR MAX TEMP:  63;

BURLINGTON     PTCLDY    59  59  99 CALM      30.07R FOG
6HR MIN TEMP:  59; 6HR MAX TEMP:  61;

KENOSHA        CLOUDY    63  62  97 N7        30.07R FOG
6HR MIN TEMP:  63; 6HR MAX TEMP:  64;

FOND DU LAC    FOG       62  60  93 CALM      30.08R VSB<1/4
6HR MIN TEMP:  56; 6HR MAX TEMP:  63;

SHEBOYGAN      CLOUDY    56  56 100 NW3       30.08R FOG
6HR MIN TEMP:  53; 6HR MAX TEMP:  62;

WEST BEND      FOG       59  57  94 CALM      30.08R VSB 1/4
JUNEAU         FOG       57  57  99 CALM      30.09R VSB 1/4
6HR MIN TEMP:  56; 6HR MAX TEMP:  62; 6HR PCP:  0.01;

$$

LSZ147-162-301300-
LAKE SUPERIOR

STATION/POSITION TIME  TEMP    WIND        PRES    WAVE
                       AIR SEA DIR/SP/G            HT/PER
                 (UTC) (F)     (DEG/KT/KT) (MB)    (FT/S)
W MID LAKE BUOY  1150   59 54  210/ 14/ 16 1014.1R   1/ 3
DEVILS ISLAND    1200   63     200/  6/  7 1014.4R
PORT WING        1140   65     200/  6/ 14 1014.6S
SAXON HARBOR     1100   64     210/  3/  9 1014.6
$$

LMZ867-665-643>646-301300-
LAKE MICHIGAN

STATION/POSITION TIME  TEMP    WIND        PRES    WAVE
                       AIR SEA DIR/SP/G            HT/PER



USA.gov is the U.S. government's official web portal to all federal, state and local government web resources and services.